Wind_Speed
4 3 3 2 2 2 2 3 3 3 2 2 2 2 2 2 2 2 2 2 2 2 2 3 4 4 5 5 4 4 4 5 4 4 5 5 5 7 8 8 8 9 9
5 4 3 3 3 2 3 3 4 4 4 4 4 4 4 3 3 3 3 3 3 3 3 4 4 4 5 5 4 2 2 3 4 4 4 3 4 6 7 8 8 8 9
5 5 4 4 3 3 4 4 5 6 5 5 5 5 5 5 5 5 4 4 4 4 4 4 4 4 4 5 5 4 3 4 4 5 5 4 5 6 7 8 9 9 9
5 5 4 4 4 4 4 4 5 6 6 5 5 5 6 6 6 5 5 4 4 4 4 5 4 5 5 5 5 4 5 5 6 6 6 6 6 6 7 8 9 9 10
6 5 5 4 4 4 4 5 5 5 5 6 6 6 6 6 6 5 5 5 5 5 5 5 5 5 5 5 5 5 5 5 6 6 6 6 6 8 8 9 9 10 10
6 6 6 5 5 5 5 5 5 4 5 5 6 6 6 6 6 6 5 6 6 6 6 6 5 5 6 6 6 5 5 6 7 6 6 6 7 8 9 9 10 10 10
6 6 6 6 6 5 5 5 5 5 5 5 6 6 6 6 6 6 6 6 6 6 6 6 6 6 6 6 6 6 6 6 7 7 7 8 8 8 9 9 9 10 10
5 6 6 7 7 7 6 6 6 6 6 6 6 6 6 6 6 6 6 7 7 7 7 7 6 6 6 6 6 7 7 7 8 8 8 9 9 9 9 9 10 11 11
5 6 6 6 7 7 7 6 6 7 7 7 7 8 8 7 7 7 7 7 7 7 7 8 8 8 8 7 8 8 9 9 9 9 9 9 9 9 10 10 10 11 11
5 6 6 6 6 7 7 7 7 7 7 7 8 8 8 8 8 8 8 8 7 7 8 8 8 8 8 9 9 9 9 9 9 10 9 10 10 10 10 10 10 11 11
5 6 6 6 7 7 8 8 8 8 8 8 8 8 8 8 8 8 8 8 9 9 8 8 8 9 9 9 9 9 9 9 9 9 9 10 10 11 10 11 11 12 12
5 6 6 7 7 7 8 8 8 9 9 9 9 9 8 8 8 8 9 9 9 9 9 9 9 10 9 9 9 9 9 9 9 9 9 10 10 11 11 12 12 12 13
6 6 7 7 8 8 8 9 9 9 9 10 10 10 10 10 9 9 9 10 10 10 10 10 10 10 10 10 10 9 9 9 9 10 10 10 11 11 11 11 12 12 12
6 7 8 8 9 9 10 10 10 11 11 11 11 11 11 11 10 10 10 10 10 10 10 10 10 10 10 10 10 10 9 9 9 10 11 11 11 11 12 12 13 13 13
7 7 8 8 9 9 10 10 11 11 12 12 11 11 11 10 10 10 10 10 10 10 10 10 10 10 10 9 10 10 9 9 9 9 10 10 11 11 11 12 12 12 12
8 8 8 7 8 8 9 9 9 9 10 10 10 10 10 10 11 10 11 11 11 11 11 11 11 10 10 9 9 9 10 10 10 10 10 10 10 11 11 10 11 12 12
8 8 8 8 8 8 8 9 9 9 8 9 9 10 10 10 10 11 11 11 11 11 11 11 11 10 10 9 9 9 10 10 10 10 10 10 10 10 10 10 10 12 12
9 9 8 8 8 8 8 8 8 8 8 8 9 9 10 10 10 11 11 11 11 11 11 11 11 10 10 10 10 10 10 10 10 10 10 11 11 11 11 11 12 12 12
9 9 9 9 9 9 9 8 7 7 7 8 9 9 10 10 10 11 11 11 11 11 11 11 11 11 11 11 10 10 10 10 11 11 11 11 12 12 12 13 13 13 13
10 10 10 10 10 10 9 9 8 8 8 8 9 10 10 10 11 11 11 11 11 11 11 11 11 11 12 11 11 11 11 11 11 12 12 12 12 13 13 14 14 14 13
11 11 11 11 11 10 10 10 10 9 9 9 9 10 10 10 10 11 11 12 12 11 11 12 12 12 12 12 12 12 12 12 12 12 12 13 13 14 14 14 14 14 14
13 13 13 13 13 12 11 11 11 11 10 10 10 10 10 10 11 11 11 12 12 12 12 12 13 13 13 13 13 14 14 13 13 13 13 13 14 14 14 14 14 14 14
14 14 14 14 14 14 13 12 12 12 12 11 11 11 11 11 11 12 12 12 12 12 12 13 13 14 14 14 14 14 14 14 14 14 14 14 14 14 14 14 14 14 14
15 15 14 15 15 14 13 13 13 13 13 13 12 12 12 12 13 13 13 13 13 14 14 14 15 15 15 15 15 15 14 14 14 14 15 15 15 14 14 14 14 14 15
15 15 15 15 15 15 15 14 14 14 14 14 14 13 14 14 14 14 14 14 14 15 15 15 15 15 15 15 15 15 15 15 15 15 15 15 15 15 15 14 14 15 15
15 16 16 16 15 16 16 15 15 15 15 15 16 16 16 15 15 15 16 16 16 16 16 17 16 16 16 16 17 17 16 16 16 16 15 15 15 16 16 16 16 15 15
Wind_Direction
191 189 189 190 193 192 219 229 232 242 246 261 256 244 245 267 277 281 288 275 280 280 291 296 302 309 314 315 309 282 244 250 249 251 267 270 248 234 232 235 236 242 242
211 208 208 206 217 234 249 247 247 248 245 256 260 264 265 273 267 271 285 273 279 282 282 286 290 301 313 319 319 327 271 258 259 257 266 263 238 227 229 235 241 247 248
218 217 216 216 230 246 254 256 259 253 247 255 259 262 267 270 269 269 270 271 276 281 279 287 287 297 308 314 314 312 291 269 266 261 263 252 236 232 234 238 245 249 252
222 226 228 231 240 250 255 262 268 256 245 248 254 258 265 271 269 267 268 270 273 279 285 294 286 296 300 301 302 297 288 280 277 268 260 250 241 238 242 246 250 255 255
227 231 231 235 243 254 260 267 274 253 243 247 250 256 263 266 264 267 275 276 275 281 283 288 289 294 294 289 288 287 285 288 284 278 272 264 251 247 249 253 257 259 258
230 232 232 232 243 253 261 264 267 261 247 248 249 250 255 261 263 270 274 275 277 285 280 280 284 286 285 284 279 279 280 282 282 276 270 265 261 252 252 254 255 258 260
232 236 235 233 242 253 259 267 268 261 256 255 253 252 255 261 262 265 265 273 274 280 283 279 283 284 280 278 275 275 276 278 279 278 274 268 265 260 257 255 254 258 260
233 237 240 241 244 252 259 266 269 268 264 261 255 252 256 257 259 265 270 274 277 281 286 283 287 287 279 274 275 280 278 276 279 276 272 268 266 262 259 256 256 257 261
233 237 243 245 248 256 260 263 269 272 271 267 257 256 258 258 259 263 269 276 281 282 286 287 290 288 282 277 280 280 279 276 276 274 273 270 267 266 264 261 259 259 261
236 241 246 249 251 255 261 265 270 271 270 269 264 260 260 260 261 265 271 278 281 281 285 283 282 281 284 284 281 278 275 275 273 271 271 272 270 267 266 264 263 263 266
238 242 244 249 253 256 261 267 269 269 266 267 268 265 261 264 268 273 277 278 279 289 281 281 281 280 282 282 279 276 277 276 275 274 271 272 272 269 266 264 264 266 268
242 248 252 256 259 261 263 265 267 266 266 266 267 267 266 267 270 272 274 277 283 284 284 286 285 286 286 286 282 280 277 277 275 275 275 274 271 271 270 268 265 267 268
255 260 262 264 265 264 266 268 268 267 266 266 265 264 266 270 273 274 277 279 282 285 287 291 291 289 290 287 282 277 276 277 275 276 276 275 275 273 271 268 265 268 268
265 268 267 267 267 268 269 271 270 268 267 266 263 263 267 268 271 273 275 279 281 283 287 292 292 292 290 288 284 276 277 277 273 273 272 272 273 274 274 273 269 268 269
266 271 271 270 268 270 272 273 273 271 267 264 262 261 265 267 269 270 272 276 279 282 285 286 287 289 286 284 282 279 278 281 281 280 279 276 276 275 277 275 268 268 271
269 271 272 273 273 275 277 280 278 274 268 264 260 259 265 269 270 270 271 274 276 278 280 280 283 285 284 284 283 279 278 280 284 282 280 278 277 276 276 272 269 268 267
270 269 269 272 272 275 280 285 282 279 272 263 262 263 265 269 269 269 271 276 279 278 278 278 281 281 283 284 282 281 281 281 284 285 280 278 278 277 278 277 273 270 266
268 268 269 273 276 276 280 286 284 279 271 265 263 264 265 267 269 272 274 279 278 276 276 277 279 278 279 281 283 283 282 283 286 286 280 280 281 280 280 279 276 275 273
267 267 269 271 275 276 277 283 283 278 272 270 268 266 267 268 272 275 276 278 278 276 276 277 277 276 277 281 285 286 286 287 288 286 284 283 282 281 281 280 278 275 272
265 266 267 268 270 271 272 276 281 279 276 274 272 270 269 271 273 277 278 278 279 277 278 279 277 279 278 280 284 285 285 288 290 289 287 285 283 284 283 281 277 273 270
266 268 269 269 269 271 271 271 272 276 278 278 274 271 272 275 276 277 277 278 279 279 279 280 281 282 283 280 280 281 282 285 288 288 285 285 285 285 284 282 277 273 269
267 268 270 270 270 270 269 268 268 272 277 278 275 273 274 275 275 277 277 277 279 280 280 281 281 282 284 284 283 281 279 282 283 286 286 285 286 287 287 283 280 276 270
265 266 268 268 269 267 265 264 266 271 275 276 277 277 276 276 278 280 278 278 278 280 280 281 282 282 283 284 284 284 283 281 281 282 283 285 287 288 287 283 281 277 272
265 266 266 267 267 266 265 264 266 271 273 275 277 277 277 278 279 280 281 280 279 280 281 283 283 283 283 282 283 283 282 283 283 281 282 284 284 285 284 283 280 277 275
266 266 266 267 266 266 267 268 268 270 271 273 273 276 278 278 279 280 280 280 280 281 283 286 286 285 283 281 280 281 280 281 283 284 284 285 284 283 281 281 280 278 276
267 266 266 266 266 266 268 269 269 269 271 272 273 275 277 278 278 278 279 279 279 280 282 283 285 285 283 282 280 281 278 279 280 282 282 283 284 284 283 281 280 276 274
Height
5880 5879 5879 5879 5879 5879 5879 5878 5878 5878 5877 5877 5877 5876 5876 5876 5875 5875 5874 5874 5873 5873 5872 5871 5871 5870 5869 5868 5865 5862 5863 5864 5865 5865 5864 5861 5858 5860 5863 5865 5867 5868 5868
5879 5879 5879 5879 5879 5878 5878 5878 5877 5877 5877 5876 5876 5876 5875 5875 5875 5875 5874 5873 5873 5872 5872 5871 5870 5870 5869 5868 5866 5864 5864 5865 5866 5865 5864 5861 5859 5860 5863 5865 5866 5867 5867
5878 5878 5879 5879 5878 5878 5878 5877 5876 5876 5875 5875 5875 5875 5875 5875 5874 5874 5873 5873 5872 5872 5871 5870 5870 5869 5869 5867 5866 5866 5866 5865 5865 5865 5864 5863 5862 5862 5864 5865 5866 5866 5866
5878 5878 5878 5878 5878 5877 5877 5876 5875 5874 5873 5874 5874 5874 5874 5873 5873 5873 5873 5872 5872 5871 5871 5870 5869 5869 5868 5868 5867 5866 5866 5866 5865 5865 5864 5864 5863 5863 5864 5864 5864 5864 5864
5877 5877 5877 5877 5877 5877 5876 5875 5874 5872 5872 5873 5873 5873 5873 5873 5872 5872 5872 5872 5871 5871 5870 5869 5869 5868 5868 5867 5867 5866 5866 5866 5865 5865 5864 5864 5863 5863 5864 5863 5863 5863 5863
5876 5876 5876 5876 5876 5876 5875 5874 5874 5873 5872 5872 5872 5872 5872 5872 5872 5872 5871 5871 5870 5870 5869 5868 5868 5868 5867 5867 5866 5866 5865 5865 5865 5864 5864 5863 5863 5863 5863 5862 5862 5862 5862
5875 5875 5875 5875 5875 5875 5874 5874 5873 5873 5872 5872 5872 5871 5871 5871 5871 5871 5870 5870 5869 5869 5868 5867 5867 5867 5866 5866 5865 5865 5865 5864 5864 5863 5863 5862 5862 5861 5861 5861 5860 5860 5860
5874 5874 5874 5874 5874 5874 5873 5873 5872 5872 5872 5871 5871 5871 5871 5870 5870 5870 5869 5869 5868 5868 5867 5867 5866 5866 5865 5864 5864 5863 5863 5863 5862 5862 5861 5861 5860 5860 5860 5859 5859 5859 5859
5873 5873 5873 5873 5873 5873 5873 5872 5872 5871 5871 5870 5870 5870 5870 5870 5869 5869 5868 5867 5867 5866 5866 5865 5865 5864 5864 5863 5862 5862 5861 5861 5860 5860 5860 5859 5859 5858 5858 5858 5857 5857 5857
5872 5872 5872 5872 5872 5872 5871 5871 5871 5870 5870 5869 5869 5869 5869 5868 5868 5867 5867 5866 5866 5865 5864 5864 5863 5863 5862 5861 5861 5860 5860 5859 5859 5858 5858 5857 5857 5857 5856 5856 5856 5855 5855
5871 5871 5871 5871 5870 5870 5870 5870 5869 5869 5869 5868 5868 5868 5867 5867 5866 5866 5866 5865 5865 5864 5863 5862 5861 5861 5861 5860 5859 5859 5859 5858 5857 5857 5856 5856 5855 5855 5854 5854 5854 5853 5853
5870 5870 5870 5870 5869 5869 5869 5868 5868 5868 5867 5867 5867 5866 5866 5866 5865 5865 5864 5864 5863 5863 5862 5861 5860 5860 5859 5858 5857 5857 5857 5856 5855 5855 5854 5854 5854 5853 5852 5852 5851 5851 5850
5869 5869 5869 5869 5868 5868 5867 5867 5866 5866 5866 5865 5865 5865 5865 5864 5864 5863 5863 5862 5861 5861 5860 5859 5859 5858 5857 5857 5856 5855 5855 5854 5853 5853 5852 5852 5852 5851 5850 5849 5849 5849 5848
5868 5868 5867 5867 5867 5866 5866 5865 5864 5864 5863 5863 5863 5863 5863 5862 5862 5862 5861 5861 5860 5859 5859 5858 5857 5856 5856 5855 5854 5854 5853 5852 5851 5851 5850 5850 5849 5849 5848 5847 5846 5846 5846
5867 5866 5866 5865 5865 5864 5864 5863 5862 5862 5861 5861 5861 5861 5861 5860 5860 5860 5859 5859 5858 5858 5857 5856 5855 5855 5854 5854 5853 5852 5851 5850 5849 5849 5848 5847 5847 5846 5845 5844 5844 5844 5844
5865 5865 5864 5864 5863 5863 5862 5861 5860 5859 5858 5858 5858 5858 5858 5858 5858 5858 5858 5857 5856 5856 5855 5854 5854 5853 5852 5852 5851 5850 5849 5848 5847 5847 5846 5845 5844 5844 5843 5842 5841 5841 5841
5864 5863 5863 5862 5861 5861 5860 5859 5858 5857 5856 5856 5856 5856 5856 5856 5856 5856 5856 5855 5855 5854 5853 5852 5852 5851 5851 5850 5849 5848 5847 5846 5845 5845 5844 5843 5842 5841 5841 5840 5839 5838 5838
5862 5861 5861 5860 5859 5859 5858 5857 5856 5855 5855 5854 5854 5854 5854 5854 5854 5854 5853 5853 5852 5852 5851 5850 5850 5849 5848 5848 5847 5846 5845 5844 5843 5842 5841 5841 5840 5839 5838 5837 5837 5836 5835
5859 5859 5859 5858 5857 5857 5856 5855 5855 5854 5853 5853 5852 5852 5852 5852 5852 5851 5851 5851 5850 5850 5849 5848 5848 5847 5846 5846 5845 5844 5843 5842 5841 5840 5839 5838 5837 5836 5835 5834 5834 5833 5832
5857 5857 5856 5856 5855 5854 5854 5854 5853 5852 5852 5851 5851 5850 5850 5850 5849 5849 5849 5848 5848 5847 5847 5846 5845 5844 5844 5843 5842 5841 5840 5840 5839 5838 5837 5836 5834 5833 5832 5831 5830 5829 5829
5854 5854 5854 5853 5853 5852 5852 5852 5851 5851 5850 5849 5849 5848 5848 5847 5847 5847 5846 5846 5845 5845 5844 5843 5843 5842 5841 5840 5840 5839 5838 5837 5836 5835 5834 5833 5832 5830 5829 5827 5826 5825 5825
5851 5851 5851 5850 5850 5850 5849 5849 5849 5849 5848 5847 5847 5846 5846 5845 5845 5844 5844 5843 5842 5842 5841 5841 5840 5839 5838 5837 5837 5836 5835 5835 5833 5832 5831 5830 5829 5827 5825 5824 5823 5822 5821
5848 5847 5847 5847 5847 5847 5846 5846 5846 5846 5845 5845 5844 5844 5843 5842 5842 5841 5841 5840 5840 5839 5838 5838 5837 5836 5835 5834 5833 5833 5832 5831 5830 5829 5828 5827 5825 5824 5822 5821 5820 5819 5818
5844 5844 5844 5844 5843 5843 5843 5843 5843 5843 5843 5842 5842 5841 5840 5840 5839 5838 5838 5837 5836 5836 5835 5834 5834 5833 5832 5831 5830 5829 5828 5827 5827 5826 5824 5823 5822 5821 5819 5818 5817 5816 5815
5840 5840 5840 5840 5840 5840 5840 5840 5840 5840 5839 5839 5838 5838 5837 5837 5836 5835 5834 5833 5833 5832 5831 5830 5830 5829 5828 5827 5826 5825 5824 5823 5822 5822 5821 5819 5818 5817 5816 5815 5814 5812 5812
5835 5835 5835 5836 5836 5836 5836 5836 5836 5836 5836 5835 5835 5834 5833 5833 5832 5831 5830 5830 5829 5828 5827 5826 5825 5825 5824 5823 5822 5821 5820 5819 5818 5818 5817 5816 5815 5813 5812 5811 5810 5809 5808